TimeCST,TemperatureF,Dew PointF,Humidity,Sea Level PressureIn,VisibilityMPH,Wind Direction,Wind SpeedMPH,Gust SpeedMPH,PrecipitationIn,Events,Conditions,WindDirDegrees,DateUTC
12:15 AM,14.7,7.7,74,30.32,10.0,SSW,6.9,-,N/A,,Clear,200,2012-11-27 06:15:00
12:36 AM,14.4,7.7,75,30.31,10.0,SSW,5.8,-,N/A,,Clear,200,2012-11-27 06:36:00
12:56 AM,14.0,7.5,75,30.30,10.0,Calm,Calm,-,N/A,,Clear,0,2012-11-27 06:56:00
1:15 AM,13.8,7.7,77,30.30,10.0,SSW,3.5,-,N/A,,Clear,200,2012-11-27 07:15:00
1:36 AM,14.5,8.2,76,30.30,10.0,Calm,Calm,-,N/A,,Mostly Cloudy,0,2012-11-27 07:36:00
1:56 AM,14.7,8.4,76,30.30,10.0,Calm,Calm,-,N/A,,Overcast,0,2012-11-27 07:56:00
2:15 AM,14.2,7.9,76,30.29,10.0,SSW,5.8,-,N/A,,Scattered Clouds,200,2012-11-27 08:15:00
2:36 AM,14.5,8.4,77,30.29,10.0,South,3.5,-,N/A,,Clear,190,2012-11-27 08:36:00
2:56 AM,15.4,8.8,75,30.29,10.0,South,3.5,-,N/A,,Clear,180,2012-11-27 08:56:00
3:15 AM,15.6,9.3,76,30.28,10.0,South,4.6,-,N/A,,Clear,170,2012-11-27 09:15:00
3:56 AM,15.8,9.3,76,30.27,10.0,South,5.8,-,N/A,,Clear,190,2012-11-27 09:56:00
4:15 AM,15.4,9.5,77,30.26,10.0,South,4.6,-,N/A,,Clear,180,2012-11-27 10:15:00
4:36 AM,15.4,9.5,77,30.25,10.0,South,5.8,-,N/A,,Clear,170,2012-11-27 10:36:00
4:55 AM,15.8,9.9,77,30.24,10.0,South,5.8,-,N/A,,Clear,180,2012-11-27 10:55:00
5:15 AM,15.4,9.5,77,30.24,10.0,South,5.8,-,N/A,,Clear,190,2012-11-27 11:15:00
5:36 AM,15.4,9.5,77,30.23,10.0,South,6.9,-,N/A,,Clear,190,2012-11-27 11:36:00
5:55 AM,15.1,9.5,79,30.23,10.0,South,5.8,-,N/A,,Clear,190,2012-11-27 11:55:00
6:15 AM,14.9,9.5,79,30.23,10.0,South,5.8,-,N/A,,Clear,180,2012-11-27 12:15:00
6:36 AM,14.5,9.1,79,30.22,10.0,South,8.1,-,N/A,,Clear,180,2012-11-27 12:36:00
6:55 AM,14.4,9.1,80,30.22,10.0,South,4.6,-,N/A,,Clear,180,2012-11-27 12:55:00
7:16 AM,14.7,9.3,79,30.21,10.0,South,8.1,-,N/A,,Clear,180,2012-11-27 13:16:00
7:36 AM,14.9,9.5,79,30.20,10.0,South,8.1,-,N/A,,Clear,180,2012-11-27 13:36:00
7:55 AM,14.9,9.5,79,30.20,10.0,South,8.1,-,N/A,,Clear,190,2012-11-27 13:55:00
8:16 AM,15.8,10.2,79,30.18,10.0,South,9.2,-,N/A,,Clear,190,2012-11-27 14:16:00
8:36 AM,16.9,10.8,77,30.17,10.0,South,9.2,-,N/A,,Clear,180,2012-11-27 14:36:00
8:55 AM,19.2,12.4,75,30.17,10.0,South,10.4,-,N/A,,Scattered Clouds,180,2012-11-27 14:55:00
9:16 AM,21.6,14.2,73,30.17,10.0,South,6.9,16.1,N/A,,Scattered Clouds,190,2012-11-27 15:16:00
9:36 AM,23.5,15.6,72,30.17,10.0,SSW,11.5,-,N/A,,Mostly Cloudy,200,2012-11-27 15:36:00
9:55 AM,25.5,17.4,71,30.16,10.0,SSW,9.2,-,N/A,,Overcast,200,2012-11-27 15:55:00
10:16 AM,27.0,18.5,70,30.16,10.0,SSW,11.5,-,N/A,,Overcast,200,2012-11-27 16:16:00
10:36 AM,28.6,19.4,69,30.15,10.0,South,11.5,16.1,N/A,,Overcast,190,2012-11-27 16:36:00
10:55 AM,30.4,20.7,67,30.15,10.0,SSW,12.7,-,N/A,,Overcast,210,2012-11-27 16:55:00
11:16 AM,32.5,21.9,65,30.13,10.0,South,13.8,20.7,N/A,,Mostly Cloudy,190,2012-11-27 17:16:00
11:35 AM,34.7,22.8,62,30.12,10.0,SSW,13.8,19.6,N/A,,Clear,200,2012-11-27 17:35:00
11:55 AM,35.6,23.5,62,30.12,10.0,SSW,8.1,17.3,N/A,,Mostly Cloudy,210,2012-11-27 17:55:00
12:16 PM,36.5,24.3,61,30.10,10.0,SSW,10.4,17.3,N/A,,Overcast,200,2012-11-27 18:16:00
12:35 PM,37.6,24.6,60,30.09,10.0,SSW,12.7,17.3,N/A,,Overcast,210,2012-11-27 18:35:00
12:55 PM,38.5,24.6,58,30.08,10.0,SSW,12.7,19.6,N/A,,Mostly Cloudy,210,2012-11-27 18:55:00
1:16 PM,39.2,24.3,55,30.08,10.0,SW,13.8,21.9,N/A,,Scattered Clouds,220,2012-11-27 19:16:00
1:35 PM,39.4,24.4,55,30.07,10.0,SW,6.9,-,N/A,,Mostly Cloudy,230,2012-11-27 19:35:00
1:56 PM,39.6,24.6,55,30.07,10.0,SW,11.5,18.4,N/A,,Mostly Cloudy,230,2012-11-27 19:56:00
2:16 PM,39.9,24.4,54,30.06,10.0,SW,9.2,16.1,N/A,,Overcast,220,2012-11-27 20:16:00
2:35 PM,39.6,23.9,54,30.06,10.0,SW,8.1,16.1,N/A,,Mostly Cloudy,230,2012-11-27 20:35:00
2:56 PM,40.1,23.9,52,30.07,10.0,WSW,11.5,18.4,N/A,,Scattered Clouds,250,2012-11-27 20:56:00
3:16 PM,38.8,23.9,55,30.07,10.0,WSW,9.2,16.1,N/A,,Clear,240,2012-11-27 21:16:00
3:35 PM,37.6,23.7,57,30.08,10.0,WSW,9.2,-,N/A,,Clear,250,2012-11-27 21:35:00
3:56 PM,36.3,23.4,59,30.09,10.0,SW,8.1,-,N/A,,Clear,230,2012-11-27 21:56:00
4:16 PM,34.9,23.0,62,30.09,10.0,WSW,6.9,-,N/A,,Clear,240,2012-11-27 22:16:00
4:35 PM,33.8,23.0,65,30.10,10.0,SW,5.8,-,N/A,,Clear,230,2012-11-27 22:35:00
4:56 PM,32.4,22.6,67,30.10,10.0,WSW,4.6,-,N/A,,Clear,250,2012-11-27 22:56:00
5:16 PM,31.6,22.1,68,30.11,10.0,WSW,4.6,-,N/A,,Clear,240,2012-11-27 23:16:00
5:56 PM,29.8,21.6,71,30.12,10.0,WSW,4.6,-,N/A,,Clear,250,2012-11-27 23:56:00
6:15 PM,29.1,21.9,74,30.13,10.0,West,6.9,-,N/A,,Clear,270,2012-11-28 00:15:00
6:36 PM,28.6,21.2,74,30.14,10.0,West,6.9,-,N/A,,Clear,270,2012-11-28 00:36:00
6:56 PM,28.6,21.6,75,30.15,10.0,West,6.9,-,N/A,,Clear,280,2012-11-28 00:56:00
7:15 PM,27.1,21.6,80,30.15,10.0,WNW,6.9,-,N/A,,Clear,290,2012-11-28 01:15:00
7:36 PM,27.1,21.7,80,30.16,10.0,West,4.6,-,N/A,,Clear,280,2012-11-28 01:36:00
7:56 PM,26.4,21.2,81,30.16,10.0,Calm,Calm,-,N/A,,Clear,0,2012-11-28 01:56:00
8:15 PM,23.9,19.6,84,30.17,10.0,WNW,4.6,-,N/A,,Clear,290,2012-11-28 02:15:00
8:36 PM,24.8,20.3,83,30.18,10.0,WNW,5.8,-,N/A,,Clear,290,2012-11-28 02:36:00
8:56 PM,24.6,20.7,85,30.18,10.0,WNW,5.8,-,N/A,,Clear,290,2012-11-28 02:56:00
9:15 PM,24.1,20.3,85,30.20,10.0,WNW,5.8,-,N/A,,Clear,290,2012-11-28 03:15:00
9:36 PM,23.9,20.1,85,30.20,10.0,West,4.6,-,N/A,,Clear,280,2012-11-28 03:36:00
9:56 PM,24.1,20.5,86,30.21,10.0,WNW,6.9,-,N/A,,Clear,290,2012-11-28 03:56:00
10:15 PM,23.9,20.3,86,30.22,10.0,WNW,6.9,-,N/A,,Clear,290,2012-11-28 04:15:00
10:36 PM,23.7,20.1,86,30.23,10.0,Calm,Calm,-,N/A,,Clear,0,2012-11-28 04:36:00
10:55 PM,22.1,18.9,87,30.24,10.0,Calm,Calm,-,N/A,,Clear,0,2012-11-28 04:55:00
11:16 PM,21.7,18.9,89,30.24,10.0,Calm,Calm,-,N/A,,Clear,0,2012-11-28 05:16:00
11:55 PM,22.6,19.9,89,30.25,10.0,Calm,Calm,-,N/A,,Mostly Cloudy,0,2012-11-28 05:55:00